owner,sensor,date,latitude,longitude,vertical_datum,direction_of_sea_water_velocity,sea_water_speed,upward_sea_water_velocity,qcFlag 
ADCP,ioos:station:wmo:42377:1,2013-03-01T00:09:00Z,27.2930,-90.9680,21.3,311.0,25.2,-9999.0,'11111222,11111222,99999999' 
ADCP,ioos:station:wmo:42377:1,2013-03-01T00:29:00Z,27.2930,-90.9680,21.3,313.0,26.2,-9999.0,'11111222,11111222,99999999' 
ADCP,ioos:station:wmo:42377:1,2013-03-01T00:49:00Z,27.2930,-90.9680,21.3,314.0,26.7,-9999.0,'11111222,11111222,99999999' 
ADCP,ioos:station:wmo:42377:1,2013-03-01T01:09:00Z,27.2930,-90.9680,21.3,318.0,26.7,-9999.0,'11111222,11111222,99999999' 
ADCP,ioos:station:wmo:42377:1,2013-03-01T01:29:00Z,27.2930,-90.9680,21.3,318.0,26.4,-9999.0,'11111222,11111222,99999999' 
ADCP,ioos:station:wmo:42377:1,2013-03-01T01:49:00Z,27.2930,-90.9680,21.3,317.0,26.8,-9999.0,'11111222,11111222,99999999' 
ADCP,ioos:station:wmo:42377:1,2013-03-01T02:09:00Z,27.2930,-90.9680,21.3,321.0,26.6,-9999.0,'11111222,11111222,99999999' 
ADCP,ioos:station:wmo:42377:1,2013-03-01T02:29:00Z,27.2930,-90.9680,21.3,325.0,26.4,-9999.0,'11111222,11111222,99999999' 
ADCP,ioos:station:wmo:42377:1,2013-03-01T02:49:00Z,27.2930,-90.9680,21.3,322.0,27.7,-9999.0,'11111222,11111222,99999999' 
ADCP,ioos:station:wmo:42377:1,2013-03-01T03:09:00Z,27.2930,-90.9680,21.3,324.0,28.6,-9999.0,'11111222,11111222,99999999' 
ADCP,ioos:station:wmo:42377:1,2013-03-01T03:29:00Z,27.2930,-90.9680,21.3,324.0,26.1,-9999.0,'11111222,11111222,99999999' 
ADCP,ioos:station:wmo:42377:1,2013-03-01T03:49:00Z,27.2930,-90.9680,21.3,325.0,27.5,-9999.0,'11111222,11111222,99999999' 
ADCP,ioos:station:wmo:42377:1,2013-03-01T04:09:00Z,27.2930,-90.9680,21.3,329.0,26.1,-9999.0,'11111222,11111222,99999999' 
ADCP,ioos:station:wmo:42377:1,2013-03-01T04:29:00Z,27.2930,-90.9680,21.3,326.0,25.9,-9999.0,'11111222,11111222,99999999' 
ADCP,ioos:station:wmo:42377:1,2013-03-01T04:49:00Z,27.2930,-90.9680,21.3,326.0,28.3,-9999.0,'11111222,11111222,99999999' 
ADCP,ioos:station:wmo:42377:1,2013-03-01T05:09:00Z,27.2930,-90.9680,21.3,334.0,25.7,-9999.0,'11111222,11111222,99999999' 
ADCP,ioos:station:wmo:42377:1,2013-03-01T05:29:00Z,27.2930,-90.9680,21.3,329.0,25.6,-9999.0,'11111222,11111222,99999999' 
ADCP,ioos:station:wmo:42377:1,2013-03-01T05:49:00Z,27.2930,-90.9680,21.3,335.0,24.5,-9999.0,'11111222,11111222,99999999' 
ADCP,ioos:station:wmo:42377:1,2013-03-01T06:09:00Z,27.2930,-90.9680,21.3,331.0,24.6,-9999.0,'11111222,11111222,99999999' 
ADCP,ioos:station:wmo:42377:1,2013-03-01T06:29:00Z,27.2930,-90.9680,21.3,334.0,23.4,-9999.0,'11111222,11111222,99999999' 
ADCP,ioos:station:wmo:42377:1,2013-03-01T06:49:00Z,27.2930,-90.9680,21.3,338.0,24.1,-9999.0,'11111222,11111222,99999999' 
ADCP,ioos:station:wmo:42377:1,2013-03-01T07:09:00Z,27.2930,-90.9680,21.3,340.0,21.9,-9999.0,'11111222,11111222,99999999' 
ADCP,ioos:station:wmo:42377:1,2013-03-01T07:29:00Z,27.2930,-90.9680,21.3,340.0,21.5,-9999.0,'11111222,11111222,99999999' 
ADCP,ioos:station:wmo:42377:1,2013-03-01T07:49:00Z,27.2930,-90.9680,21.3,339.0,20.3,-9999.0,'11111222,11111222,99999999' 
ADCP,ioos:station:wmo:42377:1,2013-03-01T08:09:00Z,27.2930,-90.9680,21.3,335.0,20.9,-9999.0,'11111222,11111222,99999999' 
ADCP,ioos:station:wmo:42377:1,2013-03-01T08:29:00Z,27.2930,-90.9680,21.3,349.0,19.4,-9999.0,'11111222,11111222,99999999' 
ADCP,ioos:station:wmo:42377:1,2013-03-01T08:49:00Z,27.2930,-90.9680,21.3,338.0,18.6,-9999.0,'11111222,11111222,99999999' 
ADCP,ioos:station:wmo:42377:1,2013-03-01T09:09:00Z,27.2930,-90.9680,21.3,341.0,20.0,-9999.0,'11111222,11111222,99999999' 
ADCP,ioos:station:wmo:42377:1,2013-03-01T09:29:00Z,27.2930,-90.9680,21.3,338.0,18.6,-9999.0,'11111222,11111222,99999999' 
ADCP,ioos:station:wmo:42377:1,2013-03-01T09:49:00Z,27.2930,-90.9680,21.3,336.0,17.4,-9999.0,'11111222,11111222,99999999' 
ADCP,ioos:station:wmo:42377:1,2013-03-01T10:09:00Z,27.2930,-90.9680,21.3,328.0,17.1,-9999.0,'11111222,11111222,99999999' 
ADCP,ioos:station:wmo:42377:1,2013-03-01T10:29:00Z,27.2930,-90.9680,21.3,331.0,16.5,-9999.0,'11111222,11111222,99999999' 
ADCP,ioos:station:wmo:42377:1,2013-03-01T10:49:00Z,27.2930,-90.9680,21.3,335.0,17.0,-9999.0,'11111222,11111222,99999999' 
ADCP,ioos:station:wmo:42377:1,2013-03-01T11:09:00Z,27.2930,-90.9680,21.3,341.0,16.9,-9999.0,'11111222,11111222,99999999' 
ADCP,ioos:station:wmo:42377:1,2013-03-01T11:29:00Z,27.2930,-90.9680,21.3,341.0,14.4,-9999.0,'11111222,11111222,99999999' 
ADCP,ioos:station:wmo:42377:1,2013-03-01T11:49:00Z,27.2930,-90.9680,21.3,335.0,14.6,-9999.0,'11111222,11111222,99999999' 
ADCP,ioos:station:wmo:42377:1,2013-03-01T12:09:00Z,27.2930,-90.9680,21.3,329.0,14.9,-9999.0,'11111222,11111222,99999999' 
ADCP,ioos:station:wmo:42377:1,2013-03-01T12:29:00Z,27.2930,-90.9680,21.3,335.0,13.4,-9999.0,'11111222,11111222,99999999' 
ADCP,ioos:station:wmo:42377:1,2013-03-01T12:49:00Z,27.2930,-90.9680,21.3,335.0,12.8,-9999.0,'11111222,11111222,99999999' 
ADCP,ioos:station:wmo:42377:1,2013-03-01T13:09:00Z,27.2930,-90.9680,21.3,327.0,11.4,-9999.0,'11111222,11111222,99999999' 
ADCP,ioos:station:wmo:42377:1,2013-03-01T13:29:00Z,27.2930,-90.9680,21.3,307.0,11.7,-9999.0,'11111222,11111222,99999999' 
ADCP,ioos:station:wmo:42377:1,2013-03-01T13:49:00Z,27.2930,-90.9680,21.3,297.0,12.7,-9999.0,'11111222,11111222,99999999' 
ADCP,ioos:station:wmo:42377:1,2013-03-01T14:09:00Z,27.2930,-90.9680,21.3,306.0,11.8,-9999.0,'11111222,11111222,99999999' 
ADCP,ioos:station:wmo:42377:1,2013-03-01T14:29:00Z,27.2930,-90.9680,21.3,302.0,9.3,-9999.0,'11133222,11111222,99999999' 
ADCP,ioos:station:wmo:42377:1,2013-03-01T14:49:00Z,27.2930,-90.9680,21.3,291.0,11.9,-9999.0,'11111222,11111222,99999999' 
ADCP,ioos:station:wmo:42377:1,2013-03-01T15:09:00Z,27.2930,-90.9680,21.3,301.0,13.8,-9999.0,'11111222,11111222,99999999' 
ADCP,ioos:station:wmo:42377:1,2013-03-01T15:29:00Z,27.2930,-90.9680,21.3,299.0,13.5,-9999.0,'11111222,11111222,99999999' 
ADCP,ioos:station:wmo:42377:1,2013-03-01T15:49:00Z,27.2930,-90.9680,21.3,295.0,16.8,-9999.0,'11111222,11111222,99999999' 
ADCP,ioos:station:wmo:42377:1,2013-03-01T16:09:00Z,27.2930,-90.9680,21.3,314.0,14.9,-9999.0,'11111222,11111222,99999999' 
ADCP,ioos:station:wmo:42377:1,2013-03-01T16:29:00Z,27.2930,-90.9680,21.3,301.0,17.5,-9999.0,'11111222,11111222,99999999' 
ADCP,ioos:station:wmo:42377:1,2013-03-01T16:49:00Z,27.2930,-90.9680,21.3,299.0,16.8,-9999.0,'11111222,11111222,99999999' 
ADCP,ioos:station:wmo:42377:1,2013-03-01T17:09:00Z,27.2930,-90.9680,21.3,308.0,15.7,-9999.0,'11111222,11111222,99999999' 
ADCP,ioos:station:wmo:42377:1,2013-03-01T17:29:00Z,27.2930,-90.9680,21.3,307.0,14.0,-9999.0,'11111222,11111222,99999999' 
ADCP,ioos:station:wmo:42377:1,2013-03-01T17:49:00Z,27.2930,-90.9680,21.3,296.0,14.3,-9999.0,'11111222,11111222,99999999' 
ADCP,ioos:station:wmo:42377:1,2013-03-01T18:09:00Z,27.2930,-90.9680,21.3,300.0,14.3,-9999.0,'11111222,11111222,99999999' 
ADCP,ioos:station:wmo:42377:1,2013-03-01T18:29:00Z,27.2930,-90.9680,21.3,294.0,16.6,-9999.0,'11111222,11111222,99999999' 
ADCP,ioos:station:wmo:42377:1,2013-03-01T18:49:00Z,27.2930,-90.9680,21.3,291.0,16.9,-9999.0,'11111222,11111222,99999999' 
ADCP,ioos:station:wmo:42377:1,2013-03-01T19:09:00Z,27.2930,-90.9680,21.3,297.0,15.6,-9999.0,'11111222,11111222,99999999' 
ADCP,ioos:station:wmo:42377:1,2013-03-01T19:29:00Z,27.2930,-90.9680,21.3,289.0,15.5,-9999.0,'11111222,11111222,99999999' 
ADCP,ioos:station:wmo:42377:1,2013-03-01T19:49:00Z,27.2930,-90.9680,21.3,292.0,13.7,-9999.0,'11111222,11111222,99999999' 
ADCP,ioos:station:wmo:42377:1,2013-03-01T20:09:00Z,27.2930,-90.9680,21.3,283.0,15.1,-9999.0,'11111222,11111222,99999999' 
ADCP,ioos:station:wmo:42377:1,2013-03-01T20:29:00Z,27.2930,-90.9680,21.3,298.0,13.2,-9999.0,'11111222,11111222,99999999' 
ADCP,ioos:station:wmo:42377:1,2013-03-01T20:49:00Z,27.2930,-90.9680,21.3,303.0,15.2,-9999.0,'11111222,11111222,99999999' 
ADCP,ioos:station:wmo:42377:1,2013-03-01T21:09:00Z,27.2930,-90.9680,21.3,296.0,16.4,-9999.0,'11111222,11111222,99999999' 
ADCP,ioos:station:wmo:42377:1,2013-03-01T21:29:00Z,27.2930,-90.9680,21.3,286.0,15.8,-9999.0,'11111222,11111222,99999999' 
ADCP,ioos:station:wmo:42377:1,2013-03-01T21:49:00Z,27.2930,-90.9680,21.3,296.0,15.5,-9999.0,'11111222,11111222,99999999' 
ADCP,ioos:station:wmo:42377:1,2013-03-01T22:09:00Z,27.2930,-90.9680,21.3,298.0,14.7,-9999.0,'11111222,11111222,99999999' 
ADCP,ioos:station:wmo:42377:1,2013-03-01T22:29:00Z,27.2930,-90.9680,21.3,312.0,16.3,-9999.0,'11111222,11111222,99999999' 
ADCP,ioos:station:wmo:42377:1,2013-03-01T22:49:00Z,27.2930,-90.9680,21.3,304.0,16.8,-9999.0,'11111222,11111222,99999999' 
ADCP,ioos:station:wmo:42377:1,2013-03-01T23:09:00Z,27.2930,-90.9680,21.3,306.0,18.1,-9999.0,'11111222,11111222,99999999' 
ADCP,ioos:station:wmo:42377:1,2013-03-01T23:29:00Z,27.2930,-90.9680,21.3,316.0,15.6,-9999.0,'11111222,11111222,99999999' 
ADCP,ioos:station:wmo:42377:1,2013-03-01T23:49:00Z,27.2930,-90.9680,21.3,312.0,16.3,-9999.0,'11111222,11111222,99999999' 
ADCP,ioos:station:wmo:42377:1,2013-03-02T00:09:00Z,27.2930,-90.9680,21.3,309.0,15.9,-9999.0,'11111222,11111222,99999999' 
ADCP,ioos:station:wmo:42377:1,2013-03-02T00:29:00Z,27.2930,-90.9680,21.3,318.0,19.2,-9999.0,'11111222,11111222,99999999' 
ADCP,ioos:station:wmo:42377:1,2013-03-02T00:49:00Z,27.2930,-90.9680,21.3,316.0,19.0,-9999.0,'11111222,11111222,99999999' 
ADCP,ioos:station:wmo:42377:1,2013-03-02T01:09:00Z,27.2930,-90.9680,21.3,316.0,19.0,-9999.0,'11111222,11111222,99999999' 
ADCP,ioos:station:wmo:42377:1,2013-03-02T01:29:00Z,27.2930,-90.9680,21.3,319.0,19.7,-9999.0,'11111222,11111222,99999999' 
ADCP,ioos:station:wmo:42377:1,2013-03-02T01:49:00Z,27.2930,-90.9680,21.3,312.0,18.8,-9999.0,'11111222,11111222,99999999' 
ADCP,ioos:station:wmo:42377:1,2013-03-02T02:09:00Z,27.2930,-90.9680,21.3,311.0,21.8,-9999.0,'11111222,11111222,99999999' 
ADCP,ioos:station:wmo:42377:1,2013-03-02T02:29:00Z,27.2930,-90.9680,21.3,304.0,21.7,-9999.0,'11111222,11111222,99999999' 
ADCP,ioos:station:wmo:42377:1,2013-03-02T02:49:00Z,27.2930,-90.9680,21.3,310.0,22.9,-9999.0,'11111222,11111222,99999999' 
ADCP,ioos:station:wmo:42377:1,2013-03-02T03:09:00Z,27.2930,-90.9680,21.3,311.0,23.2,-9999.0,'11111222,11111222,99999999' 
ADCP,ioos:station:wmo:42377:1,2013-03-02T03:29:00Z,27.2930,-90.9680,21.3,316.0,22.0,-9999.0,'11111222,11111222,99999999' 
ADCP,ioos:station:wmo:42377:1,2013-03-02T03:49:00Z,27.2930,-90.9680,21.3,320.0,21.4,-9999.0,'11111222,11111222,99999999' 
ADCP,ioos:station:wmo:42377:1,2013-03-02T04:09:00Z,27.2930,-90.9680,21.3,311.0,22.0,-9999.0,'11111222,11111222,99999999' 
ADCP,ioos:station:wmo:42377:1,2013-03-02T04:29:00Z,27.2930,-90.9680,21.3,310.0,23.2,-9999.0,'11111222,11111222,99999999' 
ADCP,ioos:station:wmo:42377:1,2013-03-02T04:49:00Z,27.2930,-90.9680,21.3,312.0,23.7,-9999.0,'11111222,11111222,99999999' 
ADCP,ioos:station:wmo:42377:1,2013-03-02T05:09:00Z,27.2930,-90.9680,21.3,306.0,24.6,-9999.0,'11111222,11111222,99999999' 
ADCP,ioos:station:wmo:42377:1,2013-03-02T05:29:00Z,27.2930,-90.9680,21.3,310.0,25.1,-9999.0,'11111222,11111222,99999999' 
ADCP,ioos:station:wmo:42377:1,2013-03-02T05:49:00Z,27.2930,-90.9680,21.3,310.0,25.4,-9999.0,'11111222,11111222,99999999' 
ADCP,ioos:station:wmo:42377:1,2013-03-02T06:09:00Z,27.2930,-90.9680,21.3,314.0,25.5,-9999.0,'11111222,11111222,99999999' 
ADCP,ioos:station:wmo:42377:1,2013-03-02T06:29:00Z,27.2930,-90.9680,21.3,314.0,25.5,-9999.0,'11111222,11111222,99999999' 
ADCP,ioos:station:wmo:42377:1,2013-03-02T06:49:00Z,27.2930,-90.9680,21.3,316.0,25.2,-9999.0,'11111222,11111222,99999999' 
ADCP,ioos:station:wmo:42377:1,2013-03-02T07:09:00Z,27.2930,-90.9680,21.3,318.0,25.9,-9999.0,'11111222,11111222,99999999' 
ADCP,ioos:station:wmo:42377:1,2013-03-02T07:29:00Z,27.2930,-90.9680,21.3,328.0,25.4,-9999.0,'11111222,11111222,99999999' 
ADCP,ioos:station:wmo:42377:1,2013-03-02T07:49:00Z,27.2930,-90.9680,21.3,327.0,24.3,-9999.0,'11111222,11111222,99999999' 
ADCP,ioos:station:wmo:42377:1,2013-03-02T08:09:00Z,27.2930,-90.9680,21.3,321.0,24.4,-9999.0,'11111222,11111222,99999999' 
ADCP,ioos:station:wmo:42377:1,2013-03-02T08:29:00Z,27.2930,-90.9680,21.3,325.0,24.2,-9999.0,'11111222,11111222,99999999' 
ADCP,ioos:station:wmo:42377:1,2013-03-02T08:49:00Z,27.2930,-90.9680,21.3,329.0,24.5,-9999.0,'11111222,11111222,99999999' 
ADCP,ioos:station:wmo:42377:1,2013-03-02T09:09:00Z,27.2930,-90.9680,21.3,327.0,24.3,-9999.0,'11111222,11111222,99999999' 
ADCP,ioos:station:wmo:42377:1,2013-03-02T09:29:00Z,27.2930,-90.9680,21.3,332.0,22.9,-9999.0,'11111222,11111222,99999999' 
ADCP,ioos:station:wmo:42377:1,2013-03-02T09:49:00Z,27.2930,-90.9680,21.3,335.0,23.9,-9999.0,'11111222,11111222,99999999' 
ADCP,ioos:station:wmo:42377:1,2013-03-02T10:09:00Z,27.2930,-90.9680,21.3,327.0,21.6,-9999.0,'11111222,11111222,99999999' 
ADCP,ioos:station:wmo:42377:1,2013-03-02T10:29:00Z,27.2930,-90.9680,21.3,343.0,22.0,-9999.0,'11111222,11111222,99999999' 
ADCP,ioos:station:wmo:42377:1,2013-03-02T10:49:00Z,27.2930,-90.9680,21.3,341.0,22.4,-9999.0,'11111222,11111222,99999999' 
ADCP,ioos:station:wmo:42377:1,2013-03-02T11:09:00Z,27.2930,-90.9680,21.3,333.0,19.7,-9999.0,'11111222,11111222,99999999' 
ADCP,ioos:station:wmo:42377:1,2013-03-02T11:29:00Z,27.2930,-90.9680,21.3,339.0,21.3,-9999.0,'11111222,11111222,99999999' 
ADCP,ioos:station:wmo:42377:1,2013-03-02T11:49:00Z,27.2930,-90.9680,21.3,355.0,16.8,-9999.0,'11111222,11111222,99999999' 
ADCP,ioos:station:wmo:42377:1,2013-03-02T12:09:00Z,27.2930,-90.9680,21.3,354.0,15.5,-9999.0,'11111222,11111222,99999999' 
ADCP,ioos:station:wmo:42377:1,2013-03-02T12:29:00Z,27.2930,-90.9680,21.3,338.0,15.1,-9999.0,'11111222,11111222,99999999' 
ADCP,ioos:station:wmo:42377:1,2013-03-02T12:49:00Z,27.2930,-90.9680,21.3,5.0,12.6,-9999.0,'11111222,11111222,99999999' 
ADCP,ioos:station:wmo:42377:1,2013-03-02T13:09:00Z,27.2930,-90.9680,21.3,353.0,16.3,-9999.0,'11111222,11111222,99999999' 
ADCP,ioos:station:wmo:42377:1,2013-03-02T13:29:00Z,27.2930,-90.9680,21.3,342.0,13.6,-9999.0,'11111222,11111222,99999999' 
ADCP,ioos:station:wmo:42377:1,2013-03-02T13:49:00Z,27.2930,-90.9680,21.3,347.0,11.6,-9999.0,'11111222,11111222,99999999' 
ADCP,ioos:station:wmo:42377:1,2013-03-02T14:09:00Z,27.2930,-90.9680,21.3,346.0,10.0,-9999.0,'11111222,11111222,99999999' 
ADCP,ioos:station:wmo:42377:1,2013-03-02T14:29:00Z,27.2930,-90.9680,21.3,4.0,10.6,-9999.0,'11111222,11111222,99999999' 
ADCP,ioos:station:wmo:42377:1,2013-03-02T14:49:00Z,27.2930,-90.9680,21.3,338.0,12.9,-9999.0,'11111222,11111222,99999999' 
ADCP,ioos:station:wmo:42377:1,2013-03-02T15:09:00Z,27.2930,-90.9680,21.3,352.0,11.2,-9999.0,'11111222,11111222,99999999' 
ADCP,ioos:station:wmo:42377:1,2013-03-02T15:29:00Z,27.2930,-90.9680,21.3,345.0,7.5,-9999.0,'11133222,11111222,99999999' 
ADCP,ioos:station:wmo:42377:1,2013-03-02T15:49:00Z,27.2930,-90.9680,21.3,298.0,5.5,-9999.0,'11133222,11111222,99999999' 
ADCP,ioos:station:wmo:42377:1,2013-03-02T16:09:00Z,27.2930,-90.9680,21.3,21.0,10.1,-9999.0,'11111222,11111222,99999999' 
ADCP,ioos:station:wmo:42377:1,2013-03-02T16:29:00Z,27.2930,-90.9680,21.3,5.0,8.8,-9999.0,'11133222,11111222,99999999' 
ADCP,ioos:station:wmo:42377:1,2013-03-02T16:49:00Z,27.2930,-90.9680,21.3,309.0,9.6,-9999.0,'11133222,11111222,99999999' 
ADCP,ioos:station:wmo:42377:1,2013-03-02T17:09:00Z,27.2930,-90.9680,21.3,344.0,7.3,-9999.0,'11133222,11111222,99999999' 
ADCP,ioos:station:wmo:42377:1,2013-03-02T17:29:00Z,27.2930,-90.9680,21.3,315.0,7.6,-9999.0,'11133222,11111222,99999999' 
ADCP,ioos:station:wmo:42377:1,2013-03-02T17:49:00Z,27.2930,-90.9680,21.3,305.0,7.6,-9999.0,'11133222,11111222,99999999' 
ADCP,ioos:station:wmo:42377:1,2013-03-02T18:09:00Z,27.2930,-90.9680,21.3,342.0,7.6,-9999.0,'11133222,11111222,99999999' 
ADCP,ioos:station:wmo:42377:1,2013-03-02T18:29:00Z,27.2930,-90.9680,21.3,319.0,7.4,-9999.0,'11133222,11111222,99999999' 
ADCP,ioos:station:wmo:42377:1,2013-03-02T18:49:00Z,27.2930,-90.9680,21.3,300.0,8.1,-9999.0,'11133222,11111222,99999999' 
ADCP,ioos:station:wmo:42377:1,2013-03-02T19:09:00Z,27.2930,-90.9680,21.3,303.0,6.8,-9999.0,'11133222,11111222,99999999' 
ADCP,ioos:station:wmo:42377:1,2013-03-02T19:29:00Z,27.2930,-90.9680,21.3,276.0,9.3,-9999.0,'11133222,11111222,99999999' 
ADCP,ioos:station:wmo:42377:1,2013-03-02T19:49:00Z,27.2930,-90.9680,21.3,284.0,7.4,-9999.0,'11133222,11111222,99999999' 
ADCP,ioos:station:wmo:42377:1,2013-03-02T20:09:00Z,27.2930,-90.9680,21.3,279.0,10.9,-9999.0,'11111222,11111222,99999999' 
ADCP,ioos:station:wmo:42377:1,2013-03-02T20:29:00Z,27.2930,-90.9680,21.3,287.0,10.2,-9999.0,'11111222,11111222,99999999' 
ADCP,ioos:station:wmo:42377:1,2013-03-02T20:49:00Z,27.2930,-90.9680,21.3,269.0,9.1,-9999.0,'11133222,11111222,99999999' 
ADCP,ioos:station:wmo:42377:1,2013-03-02T21:09:00Z,27.2930,-90.9680,21.3,282.0,7.7,-9999.0,'11133222,11111222,99999999' 
ADCP,ioos:station:wmo:42377:1,2013-03-02T21:29:00Z,27.2930,-90.9680,21.3,259.0,11.1,-9999.0,'11111222,11111222,99999999' 
ADCP,ioos:station:wmo:42377:1,2013-03-02T21:49:00Z,27.2930,-90.9680,21.3,271.0,9.2,-9999.0,'11133222,11111222,99999999' 
ADCP,ioos:station:wmo:42377:1,2013-03-02T22:09:00Z,27.2930,-90.9680,21.3,255.0,11.9,-9999.0,'11111222,11111222,99999999' 
ADCP,ioos:station:wmo:42377:1,2013-03-02T22:29:00Z,27.2930,-90.9680,21.3,268.0,10.9,-9999.0,'11111222,11111222,99999999' 
ADCP,ioos:station:wmo:42377:1,2013-03-02T22:49:00Z,27.2930,-90.9680,21.3,264.0,14.4,-9999.0,'11111222,11111222,99999999' 
ADCP,ioos:station:wmo:42377:1,2013-03-02T23:09:00Z,27.2930,-90.9680,21.3,285.0,11.9,-9999.0,'11111222,11111222,99999999' 
ADCP,ioos:station:wmo:42377:1,2013-03-02T23:29:00Z,27.2930,-90.9680,21.3,273.0,9.5,-9999.0,'11133222,11111222,99999999' 
ADCP,ioos:station:wmo:42377:1,2013-03-02T23:49:00Z,27.2930,-90.9680,21.3,265.0,13.5,-9999.0,'11111222,11111222,99999999' 
ADCP,ioos:station:wmo:42377:1,2013-03-03T00:09:00Z,27.2930,-90.9680,21.3,282.0,9.9,-9999.0,'11133222,11111222,99999999' 
ADCP,ioos:station:wmo:42377:1,2013-03-03T00:29:00Z,27.2930,-90.9680,21.3,273.0,15.3,-9999.0,'11111222,11111222,99999999' 
ADCP,ioos:station:wmo:42377:1,2013-03-03T00:49:00Z,27.2930,-90.9680,21.3,304.0,14.0,-9999.0,'11111222,11111222,99999999' 
ADCP,ioos:station:wmo:42377:1,2013-03-03T01:09:00Z,27.2930,-90.9680,21.3,287.0,15.7,-9999.0,'11111222,11111222,99999999' 
ADCP,ioos:station:wmo:42377:1,2013-03-03T01:29:00Z,27.2930,-90.9680,21.3,295.0,16.4,-9999.0,'11111222,11111222,99999999' 
ADCP,ioos:station:wmo:42377:1,2013-03-03T01:49:00Z,27.2930,-90.9680,21.3,282.0,18.1,-9999.0,'11111222,11111222,99999999' 
ADCP,ioos:station:wmo:42377:1,2013-03-03T02:09:00Z,27.2930,-90.9680,21.3,287.0,18.3,-9999.0,'11111222,11111222,99999999' 
ADCP,ioos:station:wmo:42377:1,2013-03-03T02:29:00Z,27.2930,-90.9680,21.3,296.0,14.3,-9999.0,'11111222,11111222,99999999' 
ADCP,ioos:station:wmo:42377:1,2013-03-03T02:49:00Z,27.2930,-90.9680,21.3,287.0,19.3,-9999.0,'11111222,11111222,99999999' 
ADCP,ioos:station:wmo:42377:1,2013-03-03T03:09:00Z,27.2930,-90.9680,21.3,281.0,15.4,-9999.0,'11111222,11111222,99999999' 
ADCP,ioos:station:wmo:42377:1,2013-03-03T03:29:00Z,27.2930,-90.9680,21.3,292.0,20.6,-9999.0,'11111222,11111222,99999999' 
ADCP,ioos:station:wmo:42377:1,2013-03-03T03:49:00Z,27.2930,-90.9680,21.3,293.0,15.2,-9999.0,'11111222,11111222,99999999' 
ADCP,ioos:station:wmo:42377:1,2013-03-03T04:09:00Z,27.2930,-90.9680,21.3,293.0,16.7,-9999.0,'11111222,11111222,99999999' 
ADCP,ioos:station:wmo:42377:1,2013-03-03T04:29:00Z,27.2930,-90.9680,21.3,297.0,17.6,-9999.0,'11111222,11111222,99999999' 
ADCP,ioos:station:wmo:42377:1,2013-03-03T04:49:00Z,27.2930,-90.9680,21.3,300.0,18.0,-9999.0,'11111222,11111222,99999999' 
ADCP,ioos:station:wmo:42377:1,2013-03-03T05:09:00Z,27.2930,-90.9680,21.3,292.0,21.3,-9999.0,'11111222,11111222,99999999' 
ADCP,ioos:station:wmo:42377:1,2013-03-03T05:29:00Z,27.2930,-90.9680,21.3,295.0,20.7,-9999.0,'11111222,11111222,99999999' 
ADCP,ioos:station:wmo:42377:1,2013-03-03T05:49:00Z,27.2930,-90.9680,21.3,302.0,19.7,-9999.0,'11111222,11111222,99999999' 
ADCP,ioos:station:wmo:42377:1,2013-03-03T06:09:00Z,27.2930,-90.9680,21.3,297.0,22.8,-9999.0,'11111222,11111222,99999999' 
ADCP,ioos:station:wmo:42377:1,2013-03-03T06:29:00Z,27.2930,-90.9680,21.3,303.0,22.0,-9999.0,'11111222,11111222,99999999' 
ADCP,ioos:station:wmo:42377:1,2013-03-03T06:49:00Z,27.2930,-90.9680,21.3,298.0,23.4,-9999.0,'11111222,11111222,99999999' 
ADCP,ioos:station:wmo:42377:1,2013-03-03T07:09:00Z,27.2930,-90.9680,21.3,297.0,23.4,-9999.0,'11111222,11111222,99999999' 
ADCP,ioos:station:wmo:42377:1,2013-03-03T07:29:00Z,27.2930,-90.9680,21.3,301.0,24.1,-9999.0,'11111222,11111222,99999999' 
ADCP,ioos:station:wmo:42377:1,2013-03-03T07:49:00Z,27.2930,-90.9680,21.3,297.0,22.7,-9999.0,'11111222,11111222,99999999' 
ADCP,ioos:station:wmo:42377:1,2013-03-03T08:09:00Z,27.2930,-90.9680,21.3,303.0,22.1,-9999.0,'11111222,11111222,99999999' 
ADCP,ioos:station:wmo:42377:1,2013-03-03T08:29:00Z,27.2930,-90.9680,21.3,300.0,23.9,-9999.0,'11111222,11111222,99999999' 
ADCP,ioos:station:wmo:42377:1,2013-03-03T08:49:00Z,27.2930,-90.9680,21.3,301.0,22.8,-9999.0,'11111222,11111222,99999999' 
ADCP,ioos:station:wmo:42377:1,2013-03-03T09:09:00Z,27.2930,-90.9680,21.3,301.0,24.7,-9999.0,'11111222,11111222,99999999' 
ADCP,ioos:station:wmo:42377:1,2013-03-03T09:29:00Z,27.2930,-90.9680,21.3,304.0,24.0,-9999.0,'11111222,11111222,99999999' 
ADCP,ioos:station:wmo:42377:1,2013-03-03T09:49:00Z,27.2930,-90.9680,21.3,309.0,25.0,-9999.0,'11111222,11111222,99999999' 
ADCP,ioos:station:wmo:42377:1,2013-03-03T10:09:00Z,27.2930,-90.9680,21.3,303.0,23.2,-9999.0,'11111222,11111222,99999999' 
ADCP,ioos:station:wmo:42377:1,2013-03-03T10:29:00Z,27.2930,-90.9680,21.3,310.0,20.4,-9999.0,'11111222,11111222,99999999' 
ADCP,ioos:station:wmo:42377:1,2013-03-03T10:49:00Z,27.2930,-90.9680,21.3,312.0,23.2,-9999.0,'11111222,11111222,99999999' 
ADCP,ioos:station:wmo:42377:1,2013-03-03T11:09:00Z,27.2930,-90.9680,21.3,311.0,19.7,-9999.0,'11111222,11111222,99999999' 
ADCP,ioos:station:wmo:42377:1,2013-03-03T11:29:00Z,27.2930,-90.9680,21.3,310.0,19.9,-9999.0,'11111222,11111222,99999999' 
ADCP,ioos:station:wmo:42377:1,2013-03-03T11:49:00Z,27.2930,-90.9680,21.3,310.0,21.2,-9999.0,'11111222,11111222,99999999' 
ADCP,ioos:station:wmo:42377:1,2013-03-03T12:09:00Z,27.2930,-90.9680,21.3,309.0,17.1,-9999.0,'11111222,11111222,99999999' 
ADCP,ioos:station:wmo:42377:1,2013-03-03T12:29:00Z,27.2930,-90.9680,21.3,302.0,16.4,-9999.0,'11111222,11111222,99999999' 
ADCP,ioos:station:wmo:42377:1,2013-03-03T12:49:00Z,27.2930,-90.9680,21.3,313.0,14.2,-9999.0,'11111222,11111222,99999999' 
ADCP,ioos:station:wmo:42377:1,2013-03-03T13:09:00Z,27.2930,-90.9680,21.3,313.0,14.3,-9999.0,'11111222,11111222,99999999' 
ADCP,ioos:station:wmo:42377:1,2013-03-03T13:29:00Z,27.2930,-90.9680,21.3,308.0,11.7,-9999.0,'11111222,11111222,99999999' 
ADCP,ioos:station:wmo:42377:1,2013-03-03T13:49:00Z,27.2930,-90.9680,21.3,309.0,13.3,-9999.0,'11111222,11111222,99999999' 
ADCP,ioos:station:wmo:42377:1,2013-03-03T14:09:00Z,27.2930,-90.9680,21.3,326.0,10.7,-9999.0,'11111222,11111222,99999999' 
ADCP,ioos:station:wmo:42377:1,2013-03-03T14:29:00Z,27.2930,-90.9680,21.3,316.0,11.6,-9999.0,'11111222,11111222,99999999' 
ADCP,ioos:station:wmo:42377:1,2013-03-03T14:49:00Z,27.2930,-90.9680,21.3,299.0,11.8,-9999.0,'11111222,11111222,99999999' 
ADCP,ioos:station:wmo:42377:1,2013-03-03T15:09:00Z,27.2930,-90.9680,21.3,319.0,8.5,-9999.0,'11133222,11111222,99999999' 
ADCP,ioos:station:wmo:42377:1,2013-03-03T15:29:00Z,27.2930,-90.9680,21.3,325.0,7.5,-9999.0,'11133222,11111222,99999999' 
ADCP,ioos:station:wmo:42377:1,2013-03-03T15:49:00Z,27.2930,-90.9680,21.3,314.0,10.0,-9999.0,'11111222,11111222,99999999' 
ADCP,ioos:station:wmo:42377:1,2013-03-03T16:09:00Z,27.2930,-90.9680,21.3,324.0,9.7,-9999.0,'11133222,11111222,99999999' 
ADCP,ioos:station:wmo:42377:1,2013-03-03T16:29:00Z,27.2930,-90.9680,21.3,340.0,6.9,-9999.0,'11133222,11111222,99999999' 
ADCP,ioos:station:wmo:42377:1,2013-03-03T16:49:00Z,27.2930,-90.9680,21.3,322.0,7.8,-9999.0,'11133222,11111222,99999999' 